SENTINEL-1A (39634 NORAD) Tracking and Keplerian Element Data

This shows tracking and keplerian element data for the satellite.

Feedback or suggestion? Click here.




ElementValue
Catalog39634
NameSENTINEL-1A
Epoch Orbit54226
Epoch Day160.09916085
Epoch Year2024
RAAN167.3273
Inclination98.1793
Eccentricity0.0001386
Argument of Perigee89.0714
Mean Anonmoly271.0645
Mean Motion14.59201482
Decay Rate4.48E-06
L11 39634U 14016A 24160.09916085 .00000448 00000+0 10481-3 0 9990
L22 39634 98.1793 167.3273 0001386 89.0714 271.0645 14.59201482542260



Live tracking and technical data element details for SENTINEL-1A (NORAD 39634). SENTINEL-1A can be tracked NOW for your location showing map with azimuth and elevation plus other details from your city location.







IsCatalogInMostPopularTable: catalog: 39634, numindb: 719
Update: records affected: 1



GetName: 39634 SENTINEL-1A

Hit Count: updated at: Mon, 17 Jun 2024 22:24:48 GMT